Location: Coopersdale
(40.3556°N, 78.9372°W)
Time: 03:18:42
(UTC+00:00)

Tiros 1 despin weight - Pass Details

Date: 25 January 2021
Orbit: 593 x 642 km, 48.2° (Epoch: 02 March)

Event Time Altitude Azimuth Distance (km) Brightness Sun altitude
Rises 23:42:27 0° 300° (WNW) 2,859 ? -14.6°
Reaches altitude 10° 23:44:49 10° 305° (NW) 1,946 ? -15.1°
Maximum altitude 23:49:11 53° 22° (NNE) 736 ? -15.9°
Enters shadow 23:51:03 30° 85° (E) 1,068 ? -16.2°
Drops below altitude 10° 23:53:30 10° 101° (E) 1,922 - -16.7°
Sets 23:55:49 0° 106° (ESE) 2,819 - -17.1°
